QPF
0.01 0.01 0.01 0.02 0.01 0.01 0.01 0.01 0.01 0.00 0.00 0.00 0.01 0.01 0.02 0.03 0.03 0.02 0.02 0.02 0.02 0.01 0.02 0.02 0.02 0.02 0.02 0.02 0.02 0.02 0.02 0.02 0.03 0.04 0.05 0.05 0.05 0.04 0.04 0.06 0.05 0.05 0.05 0.04
0.02 0.02 0.01 0.02 0.02 0.01 0.01 0.00 0.00 0.00 0.00 0.00 0.00 0.01 0.01 0.03 0.03 0.03 0.02 0.02 0.01 0.01 0.01 0.02 0.02 0.03 0.02 0.02 0.02 0.01 0.02 0.03 0.04 0.06 0.05 0.04 0.03 0.03 0.03 0.04 0.03 0.04 0.04 0.03
0.02 0.01 0.02 0.02 0.02 0.01 0.01 0.01 0.00 0.00 0.00 0.00 0.00 0.01 0.02 0.03 0.03 0.04 0.03 0.02 0.02 0.01 0.01 0.01 0.02 0.03 0.03 0.02 0.02 0.02 0.02 0.03 0.05 0.05 0.05 0.05 0.04 0.04 0.04 0.04 0.04 0.04 0.04 0.04
0.02 0.01 0.01 0.01 0.01 0.02 0.01 0.01 0.01 0.01 0.01 0.00 0.01 0.01 0.03 0.03 0.03 0.03 0.03 0.02 0.01 0.01 0.01 0.01 0.02 0.02 0.02 0.02 0.02 0.02 0.02 0.03 0.04 0.05 0.05 0.06 0.06 0.05 0.04 0.05 0.05 0.04 0.04 0.04
0.03 0.02 0.01 0.00 0.01 0.01 0.01 0.01 0.01 0.00 0.00 0.00 0.00 0.01 0.03 0.04 0.04 0.03 0.03 0.02 0.02 0.02 0.02 0.02 0.02 0.02 0.02 0.02 0.02 0.02 0.02 0.02 0.04 0.05 0.05 0.06 0.07 0.06 0.06 0.06 0.06 0.05 0.05 0.04
0.03 0.02 0.01 0.01 0.01 0.01 0.01 0.01 0.01 0.00 0.00 0.00 0.01 0.01 0.03 0.03 0.04 0.03 0.03 0.03 0.03 0.02 0.02 0.02 0.03 0.02 0.02 0.02 0.02 0.02 0.02 0.03 0.03 0.05 0.05 0.06 0.07 0.07 0.07 0.07 0.06 0.06 0.06 0.04
0.03 0.02 0.01 0.01 0.01 0.01 0.01 0.01 0.01 0.01 0.01 0.00 0.01 0.02 0.03 0.03 0.03 0.03 0.03 0.03 0.03 0.02 0.02 0.02 0.02 0.02 0.02 0.02 0.02 0.02 0.02 0.02 0.03 0.04 0.04 0.05 0.06 0.07 0.06 0.05 0.05 0.04 0.05 0.04
0.02 0.02 0.01 0.01 0.00 0.01 0.01 0.01 0.01 0.01 0.01 0.01 0.01 0.02 0.03 0.02 0.02 0.02 0.02 0.02 0.02 0.02 0.02 0.02 0.02 0.02 0.02 0.02 0.01 0.02 0.02 0.02 0.02 0.03 0.04 0.04 0.05 0.06 0.05 0.04 0.03 0.03 0.03 0.03
0.01 0.01 0.01 0.01 0.01 0.01 0.01 0.01 0.01 0.01 0.01 0.01 0.02 0.02 0.02 0.01 0.01 0.01 0.01 0.01 0.01 0.01 0.01 0.01 0.01 0.01 0.02 0.01 0.01 0.01 0.01 0.02 0.02 0.03 0.04 0.04 0.05 0.05 0.04 0.04 0.03 0.03 0.03 0.03
0.01 0.01 0.01 0.01 0.01 0.01 0.01 0.01 0.01 0.01 0.02 0.02 0.01 0.01 0.01 0.01 0.01 0.01 0.01 0.01 0.01 0.01 0.01 0.01 0.01 0.01 0.01 0.01 0.01 0.01 0.01 0.02 0.02 0.03 0.04 0.04 0.04 0.04 0.04 0.04 0.04 0.03 0.03 0.02
0.01 0.01 0.01 0.01 0.01 0.01 0.01 0.01 0.01 0.01 0.02 0.02 0.01 0.01 0.01 0.01 0.01 0.01 0.00 0.00 0.01 0.01 0.01 0.01 0.01 0.01 0.01 0.01 0.01 0.01 0.01 0.02 0.02 0.02 0.02 0.03 0.04 0.05 0.05 0.04 0.04 0.04 0.04 0.03
0.01 0.01 0.01 0.01 0.01 0.01 0.01 0.01 0.01 0.01 0.01 0.01 0.01 0.01 0.01 0.01 0.01 0.01 0.00 0.00 0.00 0.01 0.01 0.01 0.01 0.01 0.01 0.01 0.01 0.01 0.02 0.02 0.02 0.02 0.02 0.02 0.03 0.04 0.04 0.04 0.04 0.03 0.03 0.03
0.01 0.01 0.01 0.01 0.01 0.01 0.01 0.01 0.01 0.01 0.01 0.01 0.01 0.01 0.01 0.01 0.01 0.01 0.00 0.00 0.01 0.01 0.01 0.01 0.01 0.01 0.01 0.01 0.01 0.02 0.02 0.02 0.02 0.02 0.02 0.02 0.03 0.03 0.03 0.03 0.02 0.02 0.02 0.02
0.01 0.01 0.01 0.01 0.01 0.01 0.01 0.01 0.01 0.01 0.01 0.01 0.01 0.01 0.01 0.01 0.01 0.00 0.00 0.00 0.01 0.01 0.01 0.01 0.01 0.01 0.01 0.01 0.01 0.01 0.01 0.01 0.02 0.02 0.02 0.02 0.02 0.02 0.02 0.02 0.02 0.02 0.02 0.02
0.01 0.01 0.01 0.01 0.01 0.01 0.01 0.01 0.00 0.00 0.01 0.01 0.01 0.01 0.01 0.01 0.01 0.01 0.00 0.00 0.00 0.00 0.01 0.01 0.01 0.01 0.01 0.00 0.00 0.00 0.00 0.01 0.01 0.01 0.01 0.01 0.01 0.01 0.01 0.01 0.01 0.01 0.01 0.02
0.01 0.01 0.01 0.01 0.01 0.00 0.00 0.00 0.00 0.00 0.00 0.01 0.01 0.01 0.01 0.01 0.00 0.00 0.00 0.00 0.00 0.00 0.01 0.01 0.01 0.01 0.00 0.00 0.00 0.00 0.00 0.01 0.01 0.00 0.01 0.01 0.01 0.01 0.01 0.01 0.01 0.01 0.01 0.02
0.01 0.01 0.01 0.00 0.00 0.00 0.00 0.00 0.00 0.00 0.00 0.00 0.00 0.00 0.00 0.00 0.00 0.00 0.00 0.00 0.00 0.01 0.01 0.01 0.01 0.01 0.01 0.01 0.01 0.01 0.01 0.01 0.01 0.01 0.00 0.00 0.01 0.00 0.00 0.01 0.01 0.01 0.01 0.01
0.00 0.00 0.00 0.00 0.00 0.00 0.00 0.00 0.00 0.00 0.00 0.00 0.00 0.00 0.00 0.00 0.00 0.00 0.00 0.00 0.00 0.00 0.01 0.01 0.01 0.01 0.01 0.01 0.01 0.01 0.01 0.01 0.01 0.00 0.00 0.00 0.01 0.00 0.01 0.01 0.01 0.01 0.01 0.01
0.00 0.00 0.00 0.00 0.00 0.00 0.00 0.00 0.00 0.00 0.00 0.00 0.00 0.00 0.00 0.00 0.00 0.00 0.00 0.00 0.00 0.00 0.01 0.01 0.01 0.00 0.00 0.01 0.01 0.01 0.01 0.01 0.00 0.00 0.00 0.01 0.01 0.01 0.01 0.01 0.01 0.01 0.01 0.01
0.00 0.00 0.00 0.00 0.00 0.00 0.00 0.00 0.00 0.00 0.00 0.00 0.00 0.00 0.00 0.00 0.00 0.00 0.00 0.00 0.01 0.01 0.01 0.01 0.00 0.00 0.00 0.00 0.01 0.01 0.01 0.01 0.01 0.01 0.01 0.01 0.01 0.01 0.01 0.01 0.01 0.01 0.01 0.01
0.01 0.00 0.00 0.00 0.00 0.00 0.00 0.00 0.00 0.00 0.00 0.00 0.00 0.00 0.01 0.00 0.00 0.00 0.00 0.00 0.01 0.01 0.01 0.01 0.00 0.00 0.00 0.01 0.01 0.01 0.01 0.01 0.01 0.01 0.01 0.01 0.01 0.01 0.01 0.01 0.01 0.01 0.01 0.01
0.01 0.00 0.00 0.00 0.00 0.00 0.00 0.00 0.01 0.00 0.00 0.00 0.01 0.01 0.01 0.00 0.00 0.00 0.00 0.01 0.01 0.01 0.01 0.00 0.01 0.01 0.01 0.01 0.01 0.01 0.01 0.01 0.01 0.01 0.01 0.01 0.01 0.01 0.01 0.01 0.01 0.01 0.01 0.01
0.01 0.01 0.01 0.01 0.00 0.00 0.00 0.01 0.01 0.00 0.00 0.00 0.01 0.01 0.01 0.00 0.00 0.00 0.00 0.00 0.00 0.00 0.00 0.01 0.01 0.01 0.01 0.01 0.01 0.01 0.01 0.01 0.01 0.01 0.01 0.01 0.01 0.01 0.01 0.01 0.01 0.01 0.01 0.01
0.01 0.01 0.01 0.00 0.00 0.00 0.00 0.01 0.00 0.00 0.00 0.00 0.00 0.01 0.01 0.00 0.00 0.00 0.00 0.00 0.00 0.00 0.00 0.01 0.01 0.01 0.01 0.01 0.01 0.01 0.01 0.01 0.01 0.01 0.01 0.01 0.01 0.01 0.01 0.01 0.01 0.01 0.01 0.01
0.01 0.01 0.01 0.00 0.00 0.00 0.00 0.00 0.00 0.00 0.00 0.00 0.00 0.00 0.00 0.00 0.00 0.00 0.00 0.00 0.00 0.00 0.00 0.00 0.00 0.00 0.00 0.00 0.01 0.01 0.01 0.01 0.01 0.01 0.01 0.01 0.01 0.01 0.01 0.01 0.01 0.01 0.01 0.01
0.01 0.01 0.00 0.00 0.00 0.01 0.01 0.00 0.00 0.00 0.00 0.00 0.00 0.00 0.00 0.00 0.00 0.00 0.00 0.00 0.00 0.01 0.00 0.00 0.00 0.00 0.00 0.00 0.00 0.00 0.01 0.01 0.01 0.01 0.01 0.01 0.01 0.01 0.01 0.01 0.01 0.01 0.01 0.01
0.01 0.00 0.00 0.00 0.01 0.01 0.01 0.00 0.00 0.00 0.00 0.00 0.00 0.00 0.00 0.00 0.00 0.00 0.00 0.00 0.00 0.00 0.00 0.00 0.00 0.00 0.00 0.00 0.00 0.00 0.00 0.00 0.01 0.01 0.01 0.01 0.01 0.01 0.01 0.01 0.01 0.01 0.01 0.01
MSLP
1020.57 1020.76 1020.99 1021.20 1021.29 1021.21 1020.90 1020.34 1019.55 1018.58 1017.51 1016.44 1015.47 1014.67 1014.09 1013.75 1013.61 1013.62 1013.72 1013.81 1013.85 1013.79 1013.63 1013.38 1013.07 1012.77 1012.51 1012.36 1012.32 1012.41 1012.62 1012.91 1013.26 1013.64 1014.02 1014.38 1014.72 1015.03 1015.32 1015.58 1015.84 1016.07 1016.29 1016.48
1019.80 1019.87 1019.93 1019.95 1019.86 1019.62 1019.19 1018.58 1017.81 1016.94 1016.03 1015.16 1014.41 1013.82 1013.43 1013.22 1013.17 1013.22 1013.32 1013.40 1013.41 1013.33 1013.16 1012.93 1012.67 1012.41 1012.22 1012.12 1012.13 1012.25 1012.47 1012.77 1013.12 1013.50 1013.88 1014.25 1014.61 1014.95 1015.26 1015.56 1015.83 1016.08 1016.31 1016.52
1019.09 1019.02 1018.92 1018.77 1018.52 1018.14 1017.63 1016.99 1016.27 1015.50 1014.74 1014.06 1013.50 1013.10 1012.85 1012.75 1012.76 1012.84 1012.93 1012.98 1012.96 1012.87 1012.70 1012.48 1012.25 1012.04 1011.90 1011.83 1011.87 1012.00 1012.22 1012.52 1012.86 1013.24 1013.63 1014.03 1014.42 1014.81 1015.17 1015.52 1015.84 1016.13 1016.38 1016.60
1018.47 1018.25 1018.00 1017.69 1017.29 1016.80 1016.23 1015.60 1014.93 1014.26 1013.65 1013.14 1012.75 1012.49 1012.37 1012.35 1012.40 1012.48 1012.55 1012.57 1012.52 1012.41 1012.23 1012.03 1011.82 1011.64 1011.52 1011.47 1011.52 1011.65 1011.86 1012.15 1012.49 1012.87 1013.29 1013.73 1014.18 1014.63 1015.07 1015.49 1015.87 1016.21 1016.50 1016.74
1017.93 1017.56 1017.14 1016.68 1016.16 1015.59 1014.97 1014.35 1013.75 1013.19 1012.72 1012.35 1012.11 1011.98 1011.95 1011.99 1012.06 1012.14 1012.18 1012.16 1012.08 1011.94 1011.75 1011.54 1011.34 1011.17 1011.06 1011.01 1011.05 1011.17 1011.38 1011.65 1012.00 1012.40 1012.86 1013.36 1013.89 1014.43 1014.96 1015.47 1015.93 1016.33 1016.65 1016.91
1017.41 1016.87 1016.29 1015.69 1015.06 1014.43 1013.80 1013.21 1012.68 1012.23 1011.90 1011.67 1011.55 1011.53 1011.58 1011.67 1011.76 1011.82 1011.83 1011.77 1011.64 1011.47 1011.25 1011.02 1010.80 1010.62 1010.50 1010.44 1010.47 1010.58 1010.77 1011.05 1011.41 1011.86 1012.38 1012.95 1013.57 1014.21 1014.85 1015.45 1015.98 1016.44 1016.80 1017.06
1016.82 1016.12 1015.40 1014.68 1013.97 1013.30 1012.68 1012.13 1011.69 1011.36 1011.16 1011.06 1011.07 1011.15 1011.26 1011.38 1011.48 1011.52 1011.49 1011.39 1011.21 1010.99 1010.73 1010.46 1010.21 1010.00 1009.85 1009.78 1009.78 1009.88 1010.08 1010.37 1010.76 1011.26 1011.84 1012.51 1013.23 1013.97 1014.70 1015.39 1016.00 1016.50 1016.89 1017.16
1016.11 1015.27 1014.44 1013.64 1012.88 1012.20 1011.61 1011.14 1010.79 1010.59 1010.50 1010.54 1010.65 1010.82 1010.99 1011.15 1011.24 1011.26 1011.19 1011.03 1010.80 1010.52 1010.20 1009.88 1009.59 1009.34 1009.15 1009.05 1009.04 1009.13 1009.33 1009.64 1010.08 1010.62 1011.28 1012.03 1012.84 1013.67 1014.49 1015.25 1015.92 1016.47 1016.88 1017.16
1015.27 1014.35 1013.45 1012.60 1011.84 1011.18 1010.65 1010.26 1010.03 1009.93 1009.98 1010.12 1010.33 1010.57 1010.80 1010.97 1011.06 1011.05 1010.93 1010.72 1010.42 1010.07 1009.69 1009.31 1008.96 1008.67 1008.45 1008.32 1008.29 1008.38 1008.59 1008.93 1009.40 1010.00 1010.72 1011.53 1012.40 1013.30 1014.18 1015.00 1015.72 1016.31 1016.75 1017.04
1014.38 1013.41 1012.50 1011.66 1010.93 1010.32 1009.87 1009.58 1009.45 1009.47 1009.62 1009.85 1010.14 1010.44 1010.69 1010.86 1010.93 1010.89 1010.72 1010.44 1010.08 1009.66 1009.21 1008.77 1008.38 1008.04 1007.79 1007.64 1007.61 1007.70 1007.92 1008.29 1008.79 1009.43 1010.18 1011.03 1011.94 1012.88 1013.79 1014.64 1015.39 1016.01 1016.47 1016.81
1013.52 1012.57 1011.69 1010.91 1010.24 1009.72 1009.36 1009.17 1009.13 1009.24 1009.47 1009.77 1010.11 1010.43 1010.68 1010.84 1010.88 1010.78 1010.56 1010.22 1009.79 1009.30 1008.80 1008.31 1007.87 1007.51 1007.24 1007.09 1007.06 1007.16 1007.40 1007.79 1008.31 1008.96 1009.72 1010.58 1011.49 1012.42 1013.34 1014.19 1014.95 1015.59 1016.11 1016.49
1012.81 1011.93 1011.14 1010.44 1009.87 1009.45 1009.18 1009.08 1009.12 1009.29 1009.57 1009.90 1010.24 1010.55 1010.78 1010.90 1010.88 1010.73 1010.44 1010.04 1009.55 1009.01 1008.47 1007.95 1007.49 1007.11 1006.85 1006.71 1006.70 1006.82 1007.09 1007.48 1008.01 1008.65 1009.40 1010.23 1011.11 1012.00 1012.88 1013.72 1014.48 1015.14 1015.69 1016.14
1012.34 1011.57 1010.88 1010.30 1009.84 1009.52 1009.34 1009.31 1009.40 1009.60 1009.88 1010.20 1010.52 1010.78 1010.96 1011.01 1010.93 1010.71 1010.36 1009.90 1009.36 1008.79 1008.22 1007.68 1007.23 1006.87 1006.62 1006.51 1006.54 1006.70 1006.98 1007.39 1007.91 1008.54 1009.25 1010.02 1010.84 1011.68 1012.51 1013.30 1014.04 1014.71 1015.30 1015.82
1012.13 1011.48 1010.92 1010.46 1010.12 1009.89 1009.79 1009.80 1009.91 1010.11 1010.37 1010.64 1010.90 1011.09 1011.19 1011.17 1011.01 1010.72 1010.31 1009.80 1009.23 1008.63 1008.05 1007.53 1007.09 1006.77 1006.56 1006.50 1006.57 1006.77 1007.09 1007.51 1008.03 1008.62 1009.28 1009.99 1010.74 1011.50 1012.26 1013.00 1013.71 1014.39 1015.01 1015.58
1012.13 1011.62 1011.19 1010.85 1010.61 1010.47 1010.42 1010.46 1010.57 1010.75 1010.95 1011.16 1011.33 1011.44 1011.45 1011.35 1011.11 1010.76 1010.30 1009.75 1009.15 1008.55 1007.98 1007.48 1007.08 1006.79 1006.65 1006.64 1006.76 1007.01 1007.35 1007.79 1008.30 1008.87 1009.48 1010.12 1010.79 1011.47 1012.17 1012.85 1013.54 1014.20 1014.85 1015.47
1012.25 1011.86 1011.56 1011.33 1011.19 1011.11 1011.10 1011.16 1011.26 1011.39 1011.54 1011.67 1011.77 1011.79 1011.72 1011.54 1011.24 1010.84 1010.33 1009.76 1009.15 1008.55 1008.00 1007.52 1007.16 1006.92 1006.83 1006.88 1007.05 1007.34 1007.72 1008.17 1008.67 1009.22 1009.79 1010.38 1010.98 1011.60 1012.22 1012.86 1013.51 1014.16 1014.82 1015.47
1012.35 1012.08 1011.89 1011.76 1011.70 1011.68 1011.70 1011.76 1011.85 1011.95 1012.05 1012.12 1012.15 1012.10 1011.97 1011.74 1011.40 1010.96 1010.43 1009.85 1009.24 1008.65 1008.11 1007.67 1007.33 1007.13 1007.08 1007.16 1007.38 1007.69 1008.10 1008.56 1009.07 1009.59 1010.14 1010.68 1011.24 1011.81 1012.39 1012.98 1013.60 1014.24 1014.89 1015.56
1012.32 1012.16 1012.06 1012.02 1012.02 1012.05 1012.10 1012.17 1012.25 1012.33 1012.40 1012.43 1012.43 1012.35 1012.19 1011.94 1011.58 1011.14 1010.61 1010.03 1009.44 1008.86 1008.33 1007.90 1007.58 1007.40 1007.36 1007.47 1007.69 1008.03 1008.44 1008.91 1009.41 1009.93 1010.45 1010.98 1011.50 1012.03 1012.58 1013.15 1013.75 1014.37 1015.02 1015.68
1012.10 1012.01 1012.00 1012.02 1012.07 1012.14 1012.22 1012.30 1012.39 1012.47 1012.53 1012.57 1012.57 1012.50 1012.35 1012.12 1011.79 1011.37 1010.87 1010.32 1009.74 1009.18 1008.66 1008.23 1007.91 1007.72 1007.67 1007.77 1007.98 1008.31 1008.71 1009.17 1009.66 1010.17 1010.68 1011.19 1011.70 1012.22 1012.75 1013.30 1013.88 1014.49 1015.13 1015.79
1011.67 1011.65 1011.68 1011.75 1011.84 1011.94 1012.04 1012.14 1012.25 1012.35 1012.44 1012.51 1012.55 1012.52 1012.43 1012.26 1011.99 1011.62 1011.18 1010.67 1010.13 1009.59 1009.08 1008.64 1008.31 1008.10 1008.02 1008.08 1008.26 1008.55 1008.92 1009.35 1009.83 1010.32 1010.82 1011.32 1011.82 1012.32 1012.84 1013.38 1013.95 1014.55 1015.17 1015.81
1011.09 1011.11 1011.17 1011.26 1011.36 1011.47 1011.59 1011.72 1011.85 1011.99 1012.13 1012.26 1012.36 1012.42 1012.41 1012.33 1012.15 1011.87 1011.51 1011.07 1010.57 1010.06 1009.57 1009.13 1008.78 1008.53 1008.41 1008.41 1008.54 1008.78 1009.11 1009.50 1009.94 1010.41 1010.89 1011.37 1011.86 1012.35 1012.86 1013.39 1013.94 1014.53 1015.13 1015.75
1010.45 1010.48 1010.55 1010.64 1010.73 1010.84 1010.96 1011.10 1011.25 1011.43 1011.63 1011.83 1012.02 1012.18 1012.28 1012.31 1012.24 1012.08 1011.81 1011.46 1011.03 1010.57 1010.11 1009.68 1009.31 1009.03 1008.86 1008.82 1008.89 1009.06 1009.33 1009.68 1010.07 1010.50 1010.95 1011.41 1011.88 1012.36 1012.85 1013.35 1013.88 1014.43 1015.01 1015.60
1009.85 1009.87 1009.92 1009.97 1010.04 1010.13 1010.23 1010.37 1010.54 1010.76 1011.01 1011.28 1011.56 1011.82 1012.04 1012.19 1012.24 1012.20 1012.05 1011.80 1011.46 1011.07 1010.66 1010.25 1009.89 1009.60 1009.40 1009.31 1009.33 1009.45 1009.66 1009.95 1010.30 1010.69 1011.10 1011.52 1011.96 1012.40 1012.85 1013.32 1013.81 1014.32 1014.85 1015.40
1009.38 1009.37 1009.37 1009.37 1009.39 1009.43 1009.51 1009.63 1009.80 1010.04 1010.33 1010.67 1011.02 1011.38 1011.70 1011.96 1012.14 1012.22 1012.20 1012.06 1011.83 1011.52 1011.18 1010.83 1010.49 1010.21 1010.01 1009.90 1009.88 1009.97 1010.14 1010.38 1010.68 1011.01 1011.38 1011.76 1012.14 1012.54 1012.94 1013.35 1013.78 1014.23 1014.70 1015.19
1009.08 1009.02 1008.95 1008.89 1008.85 1008.83 1008.86 1008.95 1009.11 1009.35 1009.67 1010.04 1010.46 1010.88 1011.30 1011.66 1011.95 1012.15 1012.24 1012.22 1012.10 1011.90 1011.64 1011.36 1011.09 1010.85 1010.67 1010.56 1010.55 1010.61 1010.75 1010.96 1011.22 1011.51 1011.83 1012.15 1012.48 1012.81 1013.15 1013.49 1013.84 1014.21 1014.61 1015.02
1008.96 1008.83 1008.70 1008.56 1008.45 1008.37 1008.35 1008.40 1008.53 1008.76 1009.07 1009.46 1009.91 1010.39 1010.86 1011.30 1011.68 1011.98 1012.18 1012.27 1012.26 1012.17 1012.02 1011.84 1011.64 1011.47 1011.34 1011.27 1011.27 1011.34 1011.47 1011.66 1011.89 1012.15 1012.42 1012.70 1012.97 1013.23 1013.49 1013.75 1014.02 1014.30 1014.60 1014.93
1008.97 1008.78 1008.58 1008.38 1008.19 1008.05 1007.97 1007.98 1008.08 1008.28 1008.58 1008.97 1009.43 1009.92 1010.43 1010.92 1011.37 1011.74 1012.03 1012.22 1012.32 1012.33 1012.29 1012.21 1012.11 1012.02 1011.96 1011.95 1011.98 1012.08 1012.22 1012.41 1012.63 1012.86 1013.10 1013.33 1013.54 1013.75 1013.93 1014.11 1014.30 1014.49 1014.70 1014.94
Thickness
5429 5432 5429 5430 5432 5430 5428 5432 5434 5443 5439 5448 5444 5440 5436 5432 5431 5432 5431 5430 5432 5431 5429 5428 5428 5428 5428 5428 5429 5429 5427 5426 5425 5424 5423 5423 5422 5422 5422 5423 5424 5425 5427 5428
5422 5427 5424 5425 5426 5427 5427 5427 5428 5431 5435 5438 5431 5429 5426 5424 5423 5424 5423 5423 5424 5423 5421 5419 5419 5419 5419 5419 5419 5419 5418 5416 5415 5415 5414 5413 5412 5412 5412 5412 5413 5414 5416 5417
5418 5414 5419 5421 5424 5423 5422 5419 5422 5429 5434 5427 5424 5423 5419 5417 5416 5415 5415 5416 5415 5414 5413 5411 5411 5411 5410 5411 5410 5409 5408 5407 5406 5405 5404 5403 5403 5403 5403 5403 5404 5405 5406 5408
5400 5406 5415 5430 5422 5420 5419 5419 5415 5418 5420 5417 5416 5414 5412 5410 5407 5406 5407 5408 5407 5406 5405 5404 5404 5403 5402 5403 5402 5400 5399 5398 5397 5396 5395 5394 5394 5394 5394 5394 5395 5396 5397 5398
5389 5395 5405 5419 5417 5410 5410 5414 5412 5410 5411 5408 5406 5407 5407 5405 5402 5400 5400 5399 5399 5399 5398 5397 5396 5395 5395 5394 5393 5392 5391 5390 5389 5388 5387 5387 5386 5386 5385 5385 5386 5387 5388 5389
5382 5393 5404 5419 5411 5404 5406 5410 5412 5405 5404 5401 5401 5404 5406 5401 5397 5395 5393 5393 5392 5391 5390 5390 5389 5388 5387 5386 5385 5385 5384 5383 5382 5381 5380 5379 5379 5378 5378 5377 5378 5379 5380 5380
5378 5381 5394 5401 5398 5399 5404 5410 5404 5399 5397 5394 5394 5396 5396 5393 5390 5388 5386 5385 5384 5384 5383 5383 5382 5381 5379 5378 5377 5377 5376 5375 5375 5374 5373 5372 5372 5371 5370 5370 5370 5371 5371 5372
5370 5377 5395 5393 5389 5393 5397 5395 5392 5391 5390 5388 5387 5386 5385 5384 5382 5380 5378 5377 5377 5375 5375 5375 5374 5373 5372 5371 5370 5370 5369 5369 5368 5367 5366 5367 5365 5364 5363 5363 5363 5363 5363 5364
5378 5389 5389 5383 5384 5386 5384 5384 5386 5385 5383 5381 5379 5378 5377 5375 5374 5372 5370 5369 5368 5367 5367 5367 5367 5366 5365 5364 5363 5362 5362 5361 5361 5360 5360 5359 5358 5357 5356 5356 5356 5357 5357 5357
5367 5377 5379 5378 5377 5377 5377 5378 5379 5378 5376 5374 5372 5371 5369 5368 5366 5364 5362 5361 5360 5359 5359 5359 5358 5358 5357 5357 5356 5355 5354 5354 5354 5353 5353 5352 5352 5351 5350 5350 5350 5351 5351 5351
5364 5370 5372 5376 5373 5372 5372 5371 5371 5370 5369 5367 5365 5364 5362 5360 5358 5356 5355 5353 5352 5351 5351 5351 5351 5350 5350 5349 5348 5348 5347 5347 5347 5347 5346 5345 5345 5344 5344 5344 5345 5346 5346 5346
5372 5370 5368 5372 5371 5368 5366 5365 5364 5363 5362 5361 5359 5357 5355 5352 5350 5349 5347 5346 5344 5343 5343 5343 5343 5343 5343 5342 5341 5341 5341 5340 5340 5339 5339 5338 5338 5338 5338 5339 5340 5340 5340 5341
5365 5364 5362 5364 5363 5362 5360 5359 5357 5356 5355 5353 5351 5349 5347 5345 5343 5341 5340 5339 5338 5337 5336 5336 5336 5336 5336 5335 5335 5334 5333 5332 5332 5332 5331 5331 5331 5331 5331 5332 5333 5333 5333 5333
5356 5355 5356 5356 5354 5353 5352 5352 5350 5348 5346 5344 5343 5341 5339 5337 5335 5334 5333 5332 5332 5330 5330 5329 5329 5329 5329 5329 5328 5327 5326 5326 5326 5325 5324 5324 5324 5324 5324 5324 5324 5324 5325 5326
5350 5349 5348 5348 5346 5345 5344 5343 5342 5340 5338 5336 5334 5333 5332 5330 5329 5328 5327 5327 5325 5324 5323 5323 5322 5322 5323 5322 5322 5321 5320 5320 5319 5319 5318 5318 5318 5317 5317 5317 5317 5317 5318 5318
5344 5343 5342 5341 5339 5338 5336 5335 5334 5332 5330 5328 5326 5325 5324 5323 5322 5321 5320 5319 5318 5317 5317 5316 5316 5316 5315 5315 5315 5314 5314 5315 5314 5313 5313 5312 5312 5312 5311 5311 5311 5311 5311 5311
5337 5338 5336 5334 5333 5331 5328 5327 5326 5325 5323 5321 5319 5318 5316 5315 5314 5313 5313 5312 5311 5310 5310 5310 5309 5310 5309 5309 5308 5308 5308 5308 5309 5307 5307 5307 5307 5306 5306 5306 5305 5305 5305 5306
5332 5332 5331 5329 5327 5325 5323 5322 5320 5318 5316 5315 5313 5311 5310 5308 5307 5306 5306 5305 5305 5305 5305 5305 5305 5305 5304 5304 5303 5302 5302 5302 5302 5301 5302 5302 5302 5301 5301 5300 5300 5299 5300 5300
5326 5326 5325 5324 5322 5321 5319 5317 5315 5313 5311 5309 5307 5306 5304 5302 5301 5300 5299 5299 5299 5299 5300 5301 5302 5301 5300 5300 5299 5298 5297 5297 5297 5296 5296 5297 5297 5296 5295 5295 5295 5294 5294 5295
5321 5321 5320 5319 5318 5316 5314 5312 5310 5308 5306 5305 5303 5301 5299 5298 5296 5295 5295 5295 5295 5296 5296 5297 5297 5297 5296 5296 5296 5294 5293 5293 5292 5291 5291 5291 5291 5291 5290 5290 5290 5290 5290 5290
5316 5315 5314 5313 5312 5311 5309 5307 5305 5304 5303 5301 5299 5297 5295 5294 5293 5292 5291 5292 5292 5293 5293 5294 5293 5293 5292 5292 5292 5290 5289 5288 5288 5287 5287 5286 5286 5286 5285 5285 5286 5286 5286 5287
5310 5309 5308 5307 5306 5305 5303 5302 5301 5300 5298 5297 5295 5293 5291 5290 5288 5288 5288 5288 5289 5290 5290 5289 5289 5289 5289 5288 5287 5286 5285 5284 5284 5283 5282 5282 5281 5281 5281 5281 5281 5282 5282 5283
5305 5304 5303 5302 5301 5299 5298 5297 5296 5296 5294 5293 5291 5289 5288 5286 5285 5284 5285 5285 5285 5286 5286 5285 5285 5286 5285 5283 5282 5281 5281 5280 5279 5279 5278 5277 5277 5277 5277 5278 5278 5278 5279 5280
5301 5300 5298 5296 5295 5294 5294 5293 5292 5291 5289 5288 5287 5286 5284 5282 5282 5281 5281 5282 5283 5282 5281 5281 5281 5281 5280 5278 5277 5276 5275 5275 5274 5274 5274 5274 5274 5273 5274 5274 5274 5275 5275 5276
5296 5294 5292 5291 5291 5291 5290 5288 5286 5285 5284 5283 5282 5282 5281 5280 5278 5277 5277 5277 5278 5277 5276 5275 5276 5275 5273 5272 5271 5271 5270 5270 5270 5270 5270 5269 5270 5270 5270 5270 5271 5271 5272 5272
5291 5289 5288 5287 5287 5285 5284 5283 5282 5281 5279 5279 5278 5277 5276 5275 5274 5273 5272 5271 5271 5271 5269 5269 5268 5268 5267 5267 5266 5266 5265 5265 5265 5265 5265 5265 5266 5266 5267 5267 5267 5268 5268 5269
5286 5285 5283 5283 5282 5281 5279 5278 5277 5276 5275 5275 5273 5273 5271 5270 5269 5268 5266 5265 5265 5264 5263 5263 5262 5262 5261 5261 5260 5260 5260 5260 5260 5260 5261 5261 5262 5263 5263 5264 5264 5264 5265 5266